Terug naar catalogus

INTELSAT 4-F7

ActiefCommunicatieGEO
NORAD 6796·PAYLOAD· XX

Gelanceerd Aug 23, 1973 vanaf Cape Canaveral Space Force Station

Loading…

TLE

VersSource: Space-Track

Epoch: Sep 14, 2026, 13:20 UTC

1 06796U 73058A   26257.55573081 -.00000010  00000-0  00000-0 0  9999
2 06796   7.0342 296.1828 0005069 230.8446 288.3998  0.99143165136532

Volg INTELSAT 4-F7 in realtime met AllMySat

Download on the App Store